Vorticity
1 0 6 2 3 9 7 8 7 -1 1 9 11 15 10 1 10 19 23 36 29 4 -2 2 1 1 2 2 1 1 2 0 2 7 6 3 4 4 2 2 3 2 2 2 2 3 5 5 5 6 4 2 3 5 6 7 8 10 9 9 9 9 10 10 11 9 7 7 7 7 7 8 8 8 8 8 8 8 8 8 7 7 7 8 8
7 -0 3 2 -0 6 8 6 7 5 5 7 11 20 18 4 4 6 7 25 38 25 8 1 3 3 -3 -0 6 1 -2 1 2 4 7 6 4 5 3 2 3 2 2 3 1 2 3 3 5 8 5 2 1 4 6 5 5 8 8 8 8 8 10 10 10 11 9 8 9 8 8 8 8 9 8 8 9 9 8 8 7 7 8 8 7
12 5 1 3 -1 -2 5 6 3 8 9 -1 -1 13 17 10 9 4 -0 7 21 33 29 6 -5 1 -2 -4 7 9 -0 -2 3 3 5 7 5 4 5 1 1 2 1 3 2 2 3 2 3 6 7 4 3 2 3 4 5 5 6 7 7 6 8 9 9 10 9 9 9 9 9 9 8 9 9 9 9 9 8 7 7 7 7 7 7
14 11 3 3 3 -5 -3 3 5 11 10 1 1 7 7 10 11 3 3 7 3 16 43 34 1 -7 1 -4 -7 1 3 -3 0 3 2 3 4 3 5 3 1 2 1 2 3 1 2 4 3 3 5 4 5 5 2 2 4 4 4 5 6 5 6 7 9 9 9 9 8 8 8 8 9 9 9 10 9 9 8 7 6 7 7 6 6
17 16 9 4 4 0 -5 -4 4 10 7 4 7 6 2 5 7 2 7 14 4 -0 25 47 32 4 -3 1 -5 -5 2 1 -1 2 1 0 2 1 4 5 2 2 1 -0 2 2 2 4 4 3 3 3 7 8 4 2 3 3 4 3 4 5 4 5 7 7 8 8 7 7 7 7 8 8 8 7 7 8 7 6 7 7 6 5 5
21 17 13 10 6 5 2 -4 -2 5 3 4 5 2 2 2 0 5 8 7 8 4 -0 21 50 36 -0 -5 5 0 -2 0 -2 1 2 -1 0 1 4 7 4 2 2 -0 0 2 2 3 5 4 3 3 6 7 5 4 4 3 4 3 3 4 3 4 4 5 7 8 7 8 7 7 7 7 7 6 5 5 5 5 7 7 6 7 5
23 20 15 13 9 8 9 2 -4 -1 1 3 2 1 6 3 -3 6 11 1 2 11 -1 -4 38 61 20 -12 1 6 -1 -0 -1 1 4 1 1 3 4 8 8 3 3 3 1 1 1 2 3 3 4 4 5 8 7 3 2 4 5 4 3 3 4 4 4 4 4 5 6 7 7 8 7 6 6 6 5 5 5 5 6 4 4 6 7
21 26 19 12 11 11 11 3 -1 5 3 -2 -1 1 5 4 -3 -1 9 5 -2 7 9 -5 11 47 32 -7 -5 9 5 1 0 1 5 3 1 4 5 5 8 6 5 3 0 0 2 2 1 1 5 7 7 11 10 4 2 4 4 4 4 3 3 4 5 6 4 4 5 6 6 6 7 7 7 6 7 7 7 8 7 5 3 2 3
19 27 25 14 10 16 14 -2 -6 11 11 -3 -2 4 3 4 1 -1 5 7 -0 -0 7 3 1 23 35 14 3 10 8 4 5 4 5 4 -0 2 4 2 3 5 4 3 2 1 2 3 2 1 1 4 7 11 12 7 4 4 4 4 3 2 3 3 5 6 6 5 5 5 5 5 4 6 6 6 8 7 8 10 9 7 5 3 2
19 24 29 19 6 11 17 1 -7 21 27 -3 -10 2 3 3 5 4 4 6 6 3 -0 3 4 13 32 31 21 24 17 3 7 9 4 5 6 4 4 3 2 3 3 4 3 3 3 3 1 1 1 0 1 4 9 11 8 3 1 3 3 3 4 2 3 4 5 6 6 5 6 5 4 4 3 4 7 8 9 11 10 7 5 5 4
21 25 28 20 7 7 17 5 -12 20 48 19 -10 -6 1 4 7 10 12 7 6 7 -1 1 11 11 12 11 15 36 33 7 4 10 3 4 8 5 4 4 4 5 6 6 6 4 4 4 0 1 2 1 3 4 8 19 23 10 -1 1 2 4 6 5 3 2 3 3 4 5 7 6 5 6 5 3 4 6 10 13 13 9 6 4 3
19 26 25 19 14 6 12 12 -15 -8 34 37 10 -6 -6 1 0 -0 13 15 8 8 1 -2 12 19 15 10 10 25 31 15 7 6 -1 -1 5 4 5 3 2 4 5 7 10 7 4 5 3 3 2 2 6 5 -0 11 26 19 2 -2 0 2 6 7 4 4 4 1 0 3 5 5 4 5 6 5 2 3 7 12 14 11 9 8 4
17 23 21 19 21 9 3 14 4 -10 4 21 26 15 -7 -12 -9 -6 9 12 2 7 8 -1 3 9 11 19 18 13 14 13 9 4 0 3 5 5 6 3 -0 1 1 4 8 6 5 7 6 5 5 2 1 -1 -5 3 18 21 9 -0 0 3 3 4 5 5 5 3 1 2 3 1 2 4 4 5 4 -0 -0 6 11 11 10 11 8
17 22 20 15 21 21 8 3 6 6 -1 -9 8 32 20 -5 -14 -4 16 14 -4 -1 7 2 4 7 3 6 10 9 11 11 5 2 8 14 9 2 5 7 2 -0 -0 -0 2 3 4 7 8 5 5 3 -0 -0 4 8 11 15 13 5 2 3 2 0 1 1 2 4 3 4 3 -1 0 3 1 1 4 2 -1 -1 3 6 7 8 9
14 17 22 15 13 22 23 12 6 15 26 12 -3 15 40 33 0 -15 -1 7 -2 -0 5 -0 -1 3 2 -0 1 5 10 8 -3 -5 7 18 10 0 5 9 5 5 8 3 1 4 3 3 5 4 1 2 4 5 9 12 11 10 10 7 2 2 3 1 0 1 2 2 1 3 4 2 1 1 -1 -1 2 3 1 -2 -1 2 2 2 3
14 12 17 17 12 13 20 25 10 -8 13 44 28 -1 11 34 24 2 0 6 3 2 7 7 5 3 0 1 4 3 4 7 4 0 10 20 13 4 11 15 7 5 12 13 8 4 3 4 4 2 2 3 5 8 7 8 13 12 7 4 2 3 5 4 3 6 6 2 2 3 3 5 5 1 -3 -4 -1 1 0 -2 -1 -0 -1 -1 -1
13 13 13 14 16 14 11 20 20 -9 -14 23 37 14 5 23 35 25 9 5 7 7 7 5 4 4 -0 -1 3 1 -2 5 8 5 10 17 10 3 10 19 14 3 4 13 15 7 1 4 5 2 3 3 4 11 11 6 10 12 5 3 3 3 8 6 1 4 6 2 3 3 -1 2 8 11 9 3 -1 -0 1 -1 -2 -1 0 -0 -2
12 12 13 11 11 14 11 8 14 14 6 8 8 -1 -3 15 41 47 30 12 -0 -4 2 5 5 7 6 2 3 1 -3 -0 5 6 7 11 13 9 9 14 13 5 0 4 12 12 3 2 8 5 1 1 3 9 12 9 10 11 8 10 7 1 10 16 5 1 3 -0 2 8 3 -2 3 11 16 16 10 2 -0 1 1 0 1 1 1
14 13 15 16 10 10 13 7 1 3 11 17 13 -2 -19 -21 -3 21 40 46 31 5 -8 -6 -0 6 10 8 6 3 0 1 3 5 4 4 7 7 11 18 12 6 12 12 8 12 8 3 10 9 -1 -0 2 2 4 6 8 10 10 15 14 2 5 15 9 2 3 -1 0 9 8 2 1 -1 2 19 24 10 -0 -0 -2 -4 -3 0 1
12 12 12 14 13 9 8 9 7 0 -2 6 14 17 13 4 -9 -19 -13 14 39 43 31 16 5 2 4 7 6 5 5 6 6 5 2 2 2 -4 5 23 15 3 18 22 7 7 10 6 10 10 -0 -0 3 2 3 2 5 10 7 10 20 14 4 6 8 5 6 3 3 7 8 9 8 -3 -5 14 24 12 2 1 -1 -1 2 2 2
14 14 12 10 11 11 8 3 3 4 2 2 1 2 12 23 26 11 -12 -23 -13 9 27 32 24 13 8 10 12 8 4 6 10 11 4 1 2 -5 -4 12 13 5 16 21 5 1 8 9 10 8 2 0 1 3 6 1 1 9 6 7 24 27 8 1 7 7 6 6 7 8 9 13 14 4 -0 10 16 10 6 6 3 3 4 0 -2
23 19 17 16 13 13 13 10 6 2 -1 2 5 3 2 6 15 23 22 13 -0 -8 -3 8 15 14 11 13 18 17 10 5 6 9 8 6 6 5 -0 2 9 11 16 19 8 0 4 8 9 8 3 1 1 2 5 2 -1 5 6 5 17 25 13 2 5 7 4 6 8 6 5 10 15 11 7 9 11 8 6 7 4 -1 -1 -2 -5
25 24 23 24 24 21 18 15 12 9 2 -1 -1 1 3 5 5 7 12 19 21 15 7 5 7 10 9 7 13 21 24 24 18 12 11 9 6 7 5 3 6 9 11 12 9 4 3 4 5 6 3 1 2 2 2 3 1 2 6 6 8 17 15 5 2 4 2 3 7 6 3 4 7 11 11 7 6 6 6 8 7 5 5 5 1
19 19 18 18 21 26 30 27 22 16 10 5 1 -0 1 2 3 6 6 8 12 13 14 13 10 11 12 9 8 13 17 22 24 23 23 19 12 12 11 6 7 10 9 8 7 7 7 6 6 10 8 3 3 4 3 4 1 -0 6 7 5 14 19 8 0 2 3 3 3 4 4 2 2 7 12 9 6 7 6 6 5 5 6 6 3
33 28 24 20 14 14 20 27 30 28 20 13 8 4 5 5 4 4 3 5 9 9 10 12 10 9 14 16 15 13 9 5 8 13 13 8 6 13 16 11 11 15 14 11 9 8 8 6 5 8 8 4 4 5 4 4 3 4 8 6 7 18 22 8 -2 2 5 2 1 3 4 3 1 6 13 14 11 6 4 3 2 0 3 6 6
27 30 33 34 29 22 19 20 25 28 27 24 18 12 9 9 7 7 5 3 6 10 12 14 15 13 12 13 16 16 12 8 8 7 1 -8 -9 2 12 10 10 13 12 9 10 10 9 7 5 6 8 9 10 11 12 10 8 8 9 10 17 25 20 7 3 7 6 2 3 6 4 2 4 8 12 15 14 8 5 5 4 3 4 5 5
-4 2 11 20 26 30 33 32 30 30 28 25 23 19 15 12 10 10 10 6 1 2 7 12 16 18 16 13 15 18 17 14 14 12 8 1 -4 -1 5 7 9 14 15 13 11 10 9 9 9 11 14 15 13 12 13 14 12 9 6 10 19 20 12 5 5 6 5 5 8 7 3 2 7 9 9 10 10 9 8 6 4 5 4 3 4
-4 -4 1 9 16 18 20 26 33 39 39 32 25 20 16 14 13 11 10 11 6 -2 -1 5 7 8 9 8 8 10 11 12 13 13 13 11 7 4 5 7 10 14 18 16 10 7 7 7 7 8 10 10 9 8 8 10 10 8 3 4 9 8 3 3 3 2 4 9 10 7 3 2 5 6 6 6 6 5 6 6 6 5 4 5 8
7 6 7 14 22 22 22 29 41 56 60 44 27 23 20 14 13 13 10 14 15 7 2 7 10 7 7 10 11 12 12 10 11 13 14 12 10 8 5 6 9 9 9 8 6 4 5 4 2 1 1 1 3 7 10 10 10 11 8 3 2 2 -0 0 2 3 4 6 6 5 3 1 2 3 2 3 5 4 4 5 5 5 4 5 6
13 13 9 14 25 30 33 35 40 65 89 71 34 22 24 16 11 13 11 12 17 16 11 9 9 7 7 7 9 13 16 13 8 10 13 12 13 12 7 6 9 9 7 5 4 4 5 3 2 2 2 -1 -2 2 8 9 8 11 13 9 6 7 6 4 4 3 2 3 5 6 4 1 2 3 2 4 6 6 6 6 4 3 4 4 5
15 14 11 16 22 26 34 39 34 49 86 95 66 35 22 16 12 11 10 9 12 15 16 12 9 8 8 5 1 2 9 12 9 8 9 9 11 14 13 10 10 12 13 12 9 7 7 7 7 8 9 7 3 -0 2 7 8 9 10 8 4 5 7 10 12 8 3 3 4 5 7 6 5 5 5 5 5 4 6 7 5 5 5 4 6
14 12 13 22 24 15 17 29 32 29 46 79 91 65 29 15 15 11 10 13 12 8 9 11 12 12 12 9 4 -0 2 7 9 9 10 9 9 12 13 12 10 10 12 14 13 11 11 10 10 11 12 13 11 4 -1 2 7 8 5 0 -2 1 6 13 16 12 8 6 3 4 7 8 6 4 4 3 3 3 3 5 8 9 7 4 6
11 8 11 22 25 16 9 15 24 21 19 43 75 72 41 23 21 13 8 12 14 11 8 8 9 12 14 14 11 6 2 2 3 5 6 6 6 8 9 9 10 9 9 11 12 10 9 8 7 8 8 9 11 9 4 2 3 4 3 2 5 10 14 18 20 19 17 12 4 0 1 1 1 3 5 6 7 9 10 12 15 13 9 7 8
10 8 10 14 15 16 18 18 20 21 22 32 50 51 39 34 32 23 16 15 12 10 11 9 9 12 13 14 15 12 7 4 3 3 4 4 4 6 6 6 7 6 6 8 9 9 8 7 7 8 8 9 10 10 9 6 4 3 4 6 8 10 12 15 20 24 24 19 9 0 -2 0 5 9 11 11 11 13 15 16 15 12 9 8 7
9 8 9 11 10 14 20 20 14 13 18 28 37 38 36 38 36 28 25 26 22 17 14 12 11 11 10 10 12 13 12 9 5 2 2 3 3 5 6 8 9 8 7 7 7 7 8 8 8 8 9 11 12 13 12 11 8 6 5 5 5 6 10 14 20 25 27 23 13 3 -1 3 10 12 12 11 10 9 9 8 8 8 8 7 6
9 8 8 9 11 18 24 20 12 9 12 18 25 29 29 30 30 27 26 28 29 26 21 16 15 16 16 14 13 14 15 14 12 8 6 4 4 4 4 5 6 8 9 10 10 10 9 9 9 9 8 8 9 11 12 12 10 9 8 6 4 5 9 13 19 25 26 20 12 6 6 11 15 14 10 7 4 3 4 5 6 7 7 7 6
12 11 10 9 9 18 29 28 15 8 9 13 18 24 25 23 22 22 23 25 27 25 21 18 17 20 21 19 17 14 12 10 10 8 6 5 5 6 6 5 6 6 6 7 9 11 12 12 11 11 11 10 9 10 11 11 11 10 9 9 6 2 1 4 11 18 20 17 13 11 12 13 12 10 7 5 4 6 7 8 8 8 7 6 5
13 12 12 12 6 3 16 29 26 18 12 9 8 12 20 25 25 21 19 21 24 22 18 15 14 16 17 16 16 17 18 18 18 17 15 14 13 12 12 11 11 10 9 7 6 6 8 9 11 12 11 9 8 8 9 10 11 11 11 11 8 2 -5 -6 -1 6 11 12 11 12 13 12 11 10 9 8 10 11 11 11 11 9 10 11 12
11 13 14 15 9 -1 -1 10 18 20 21 22 20 14 11 13 19 24 26 26 23 20 17 14 12 12 11 9 9 10 12 15 18 20 21 22 22 21 21 20 19 19 18 16 15 13 11 10 10 10 10 10 10 10 10 10 12 13 14 14 13 9 -0 -8 -9 -2 6 9 9 9 10 10 11 11 10 10 11 12 12 13 14 13 14 17 15
9 12 15 14 10 6 4 3 5 7 10 15 22 25 21 15 13 18 24 25 22 21 21 18 13 10 8 8 10 11 13 15 17 16 16 17 16 15 16 16 17 19 20 20 21 21 20 18 16 14 13 12 13 13 13 12 12 13 15 17 18 19 15 8 3 5 8 9 9 10 10 10 10 10 10 10 10 11 11 12 13 13 14 14 11
10 9 13 14 12 11 11 9 7 8 8 4 3 5 8 8 7 10 16 18 15 15 17 17 16 17 17 17 16 15 14 15 17 18 17 17 18 17 16 16 16 16 16 17 18 18 18 17 17 17 17 17 16 15 15 15 15 14 15 15 15 17 19 16 14 12 10 8 8 9 9 11 12 12 11 11 10 11 12 12 14 15 13 12 12
16 11 10 11 11 12 14 14 10 10 12 13 12 9 5 2 1 4 10 14 14 14 13 11 9 8 9 11 15 17 17 15 16 18 18 17 16 15 13 12 13 14 13 13 12 12 12 11 10 10 10 10 11 11 10 10 10 10 10 12 12 14 15 14 12 12 11 9 9 11 12 14 14 12 12 12 12 13 13 13 14 15 14 14 15
17 17 15 13 10 9 11 13 13 12 11 10 12 13 13 12 10 7 4 6 12 18 23 28 30 28 22 15 11 11 12 11 11 14 17 17 18 20 20 17 17 18 20 21 19 16 14 14 15 16 15 11 10 12 13 13 12 11 11 12 12 12 13 14 13 13 13 12 13 14 14 15 17 18 17 16 15 15 16 15 15 14 14 13 12
15 15 16 16 14 11 9 8 9 12 14 13 12 11 11 14 18 19 15 11 7 1 -1 6 19 29 34 33 25 17 14 15 17 18 18 14 9 9 11 12 12 13 16 19 20 19 18 16 16 20 23 20 17 17 18 20 21 21 18 17 17 18 19 20 19 18 18 16 16 17 18 17 19 22 22 21 20 18 17 16 15 14 15 14 13
18 17 16 16 16 16 15 13 10 7 7 9 11 12 11 11 13 16 19 21 20 13 3 -2 -2 -1 5 12 16 15 14 16 20 28 35 37 32 24 18 14 11 8 7 7 8 9 10 8 5 7 12 15 13 10 7 9 14 18 17 14 14 14 16 19 21 21 22 20 18 18 19 19 20 21 21 21 22 21 18 18 18 16 14 13 12
16 17 17 18 17 17 17 18 17 16 13 10 9 9 9 10 10 11 12 15 19 21 19 15 12 8 5 4 7 11 13 13 11 13 21 30 37 41 42 41 39 37 35 33 30 27 25 20 14 9 8 10 11 11 9 8 10 12 11 11 11 11 13 16 18 18 20 23 22 19 16 15 19 24 26 25 26 26 24 24 24 22 20 19 19
15 15 15 17 17 18 18 17 17 17 18 17 16 14 12 11 10 10 10 10 10 12 13 12 12 13 12 9 8 10 13 14 12 8 5 4 5 9 16 20 23 24 24 26 29 34 40 45 45 39 33 28 24 22 23 25 25 23 20 16 15 15 19 21 19 16 18 21 22 22 21 16 11 9 11 14 16 19 20 23 25 25 24 26 26
12 13 14 14 15 16 17 18 18 18 18 17 18 18 18 17 16 14 13 12 11 11 11 11 10 10 10 10 9 7 7 7 6 5 4 3 2 3 5 6 8 9 8 7 8 11 16 25 33 38 40 39 36 35 38 42 45 45 41 32 22 15 13 14 14 14 17 18 13 10 11 10 1 -7 -8 -3 1 3 4 8 13 15 16 19 19
10 10 10 11 12 13 14 14 16 17 18 18 19 18 17 18 18 18 18 18 17 15 14 13 12 11 10 10 9 9 9 10 9 7 6 5 3 2 2 2 4 6 7 9 12 11 8 7 7 8 9 10 10 10 12 12 14 18 22 25 27 26 19 11 5 4 9 16 16 14 13 15 14 12 11 15 20 23 22 19 15 13 12 14 14
10 10 10 9 9 10 10 11 12 13 13 14 16 17 18 18 18 17 17 17 18 18 19 18 18 17 16 14 13 11 10 9 9 9 9 9 8 7 6 5 5 4 3 2 3 5 7 9 8 5 3 1 -1 0 2 3 5 4 1 1 7 10 6 -0 -2 1 7 16 24 27 27 27 26 25 22 21 22 23 22 18 15 13 12 11 10
9 9 10 10 10 9 9 9 9 10 10 11 11 12 13 14 15 16 17 17 16 16 17 17 17 17 17 18 18 18 18 16 15 12 10 9 9 8 8 9 9 9 9 7 3 0 -0 1 2 2 3 3 3 4 5 6 10 11 7 1 0 0 -2 -1 4 11 16 20 23 23 23 21 19 17 16 12 5 -1 -3 1 9 16 18 18 17
Height
5686 5692 5699 5704 5707 5711 5716 5721 5724 5726 5730 5734 5737 5739 5741 5743 5746 5749 5752 5755 5757 5760 5763 5765 5769 5771 5774 5777 5780 5781 5783 5785 5786 5787 5789 5791 5793 5794 5796 5797 5798 5800 5801 5802 5802 5803 5803 5804 5804 5805 5806 5807 5807 5807 5807 5807 5807 5807 5807 5806 5805 5805 5804 5803 5802 5802 5800 5799 5799 5800 5800 5800 5799 5798 5798 5797 5795 5794 5793 5791 5789 5788 5786 5785 5784
5679 5685 5692 5697 5701 5705 5709 5714 5718 5721 5725 5729 5732 5733 5734 5736 5740 5744 5747 5750 5752 5757 5760 5761 5763 5766 5769 5772 5775 5776 5779 5781 5782 5784 5786 5788 5790 5791 5792 5793 5795 5796 5797 5798 5799 5799 5800 5800 5801 5802 5803 5804 5804 5804 5804 5804 5804 5804 5804 5804 5803 5803 5802 5801 5800 5799 5798 5797 5796 5796 5796 5796 5796 5795 5794 5793 5792 5791 5790 5789 5787 5785 5784 5783 5781
5672 5678 5684 5690 5694 5699 5703 5706 5711 5716 5719 5722 5725 5725 5727 5731 5735 5739 5743 5746 5749 5753 5757 5758 5758 5760 5764 5767 5769 5770 5773 5776 5779 5781 5783 5785 5786 5788 5789 5790 5791 5793 5794 5795 5795 5796 5796 5797 5798 5799 5800 5800 5801 5801 5801 5801 5802 5802 5802 5802 5801 5801 5800 5800 5799 5798 5797 5796 5794 5793 5793 5793 5792 5792 5791 5790 5789 5788 5787 5786 5785 5783 5782 5780 5779
5665 5671 5677 5684 5689 5693 5697 5700 5705 5710 5713 5716 5718 5720 5723 5726 5730 5734 5738 5742 5745 5747 5751 5752 5753 5755 5758 5762 5764 5765 5768 5771 5774 5776 5779 5780 5782 5784 5786 5787 5788 5789 5790 5791 5792 5792 5793 5793 5794 5796 5797 5797 5798 5798 5798 5798 5798 5799 5799 5799 5799 5799 5798 5797 5797 5796 5795 5794 5793 5792 5791 5790 5790 5789 5788 5788 5787 5786 5785 5784 5783 5781 5779 5778 5776
5658 5664 5670 5677 5682 5687 5691 5694 5698 5703 5707 5711 5714 5717 5719 5722 5726 5730 5733 5737 5739 5741 5743 5746 5747 5749 5752 5755 5758 5761 5764 5766 5768 5771 5773 5775 5777 5779 5782 5783 5784 5785 5786 5787 5788 5789 5790 5790 5791 5792 5793 5794 5795 5796 5795 5795 5795 5796 5796 5796 5796 5796 5796 5795 5794 5794 5793 5792 5791 5790 5789 5788 5788 5787 5786 5785 5784 5783 5782 5781 5780 5779 5777 5776 5774
5652 5657 5663 5669 5675 5680 5685 5689 5693 5697 5702 5706 5709 5712 5715 5717 5721 5724 5727 5731 5733 5734 5737 5739 5740 5744 5747 5750 5753 5755 5759 5761 5763 5765 5768 5770 5773 5775 5777 5779 5780 5781 5782 5783 5784 5785 5787 5787 5787 5788 5790 5791 5792 5793 5793 5792 5792 5793 5793 5793 5794 5794 5793 5793 5792 5791 5791 5790 5789 5788 5788 5787 5786 5785 5784 5783 5782 5781 5780 5779 5778 5776 5774 5773 5772
5646 5650 5656 5662 5668 5674 5680 5685 5689 5692 5696 5700 5704 5707 5710 5712 5715 5718 5721 5725 5727 5729 5732 5734 5736 5739 5742 5745 5748 5751 5754 5756 5759 5761 5764 5766 5768 5770 5772 5774 5775 5777 5778 5779 5781 5782 5783 5784 5784 5785 5786 5788 5789 5790 5790 5790 5790 5791 5791 5791 5792 5792 5791 5790 5790 5789 5789 5788 5787 5787 5786 5785 5784 5784 5782 5781 5780 5779 5778 5777 5776 5775 5772 5770 5768
5640 5644 5650 5656 5663 5669 5674 5679 5684 5687 5690 5694 5698 5701 5704 5707 5709 5712 5715 5718 5721 5724 5726 5729 5733 5736 5738 5740 5743 5745 5748 5751 5754 5757 5760 5762 5764 5766 5768 5770 5771 5773 5774 5775 5776 5778 5780 5781 5781 5782 5783 5785 5786 5787 5787 5787 5787 5788 5789 5789 5789 5789 5789 5788 5787 5787 5786 5786 5785 5784 5784 5783 5782 5782 5780 5779 5778 5777 5775 5775 5774 5772 5770 5769 5766
5635 5639 5645 5651 5658 5663 5668 5673 5678 5682 5684 5687 5691 5694 5697 5700 5703 5706 5709 5712 5716 5718 5720 5724 5728 5731 5732 5734 5736 5739 5741 5745 5749 5752 5755 5757 5759 5762 5763 5765 5767 5768 5770 5771 5772 5774 5776 5777 5779 5779 5779 5781 5782 5783 5783 5783 5783 5784 5785 5786 5787 5787 5786 5786 5786 5785 5784 5783 5783 5782 5781 5781 5780 5779 5778 5777 5776 5774 5773 5772 5771 5769 5767 5766 5764
5630 5635 5640 5645 5651 5657 5661 5666 5672 5676 5678 5681 5685 5689 5692 5695 5698 5702 5704 5706 5709 5712 5715 5718 5722 5725 5726 5727 5730 5733 5736 5739 5743 5747 5750 5752 5754 5756 5758 5760 5762 5763 5765 5767 5768 5770 5772 5773 5775 5776 5776 5776 5778 5778 5778 5779 5779 5780 5781 5782 5783 5784 5783 5783 5783 5783 5782 5781 5781 5780 5779 5778 5777 5776 5775 5774 5773 5772 5771 5770 5769 5767 5765 5763 5761
5625 5630 5635 5640 5645 5650 5654 5659 5665 5670 5671 5674 5679 5683 5686 5689 5693 5697 5699 5701 5704 5707 5709 5711 5714 5717 5720 5722 5725 5728 5731 5735 5739 5742 5745 5747 5749 5751 5753 5755 5756 5758 5760 5762 5763 5765 5767 5769 5771 5772 5772 5772 5773 5773 5772 5773 5775 5775 5776 5777 5779 5781 5780 5780 5780 5780 5779 5778 5778 5777 5776 5776 5775 5773 5773 5771 5770 5769 5768 5767 5767 5765 5763 5761 5759
5620 5626 5630 5634 5637 5642 5647 5652 5658 5663 5665 5668 5672 5677 5680 5684 5688 5691 5693 5695 5698 5701 5704 5705 5707 5710 5714 5717 5720 5723 5726 5731 5735 5737 5739 5742 5744 5746 5747 5749 5751 5753 5755 5757 5758 5760 5762 5764 5765 5767 5768 5768 5769 5769 5768 5768 5769 5770 5771 5772 5774 5776 5777 5776 5777 5777 5776 5775 5775 5774 5773 5772 5771 5770 5769 5769 5767 5766 5766 5765 5764 5762 5760 5759 5757
5616 5621 5626 5629 5632 5635 5640 5645 5651 5655 5658 5661 5665 5670 5674 5677 5682 5685 5686 5687 5690 5693 5697 5699 5701 5704 5708 5712 5715 5718 5721 5726 5729 5732 5734 5736 5738 5741 5742 5744 5746 5747 5749 5751 5753 5754 5757 5759 5760 5761 5763 5764 5763 5764 5764 5764 5765 5765 5766 5767 5768 5771 5772 5772 5773 5773 5772 5772 5772 5772 5770 5768 5768 5767 5766 5765 5764 5763 5762 5761 5760 5759 5758 5756 5755
5611 5616 5620 5624 5627 5630 5634 5639 5644 5648 5651 5654 5659 5664 5668 5670 5674 5677 5678 5678 5682 5687 5690 5693 5695 5698 5702 5705 5709 5712 5715 5719 5723 5726 5728 5730 5732 5734 5737 5738 5740 5742 5743 5746 5748 5749 5751 5753 5754 5756 5758 5758 5759 5760 5760 5760 5760 5760 5760 5761 5763 5765 5766 5767 5768 5768 5768 5767 5767 5768 5767 5765 5764 5763 5762 5761 5761 5760 5759 5757 5757 5756 5755 5753 5752
5606 5611 5615 5619 5622 5625 5628 5634 5640 5644 5646 5648 5653 5658 5662 5664 5665 5665 5667 5669 5674 5680 5683 5686 5690 5692 5696 5699 5702 5706 5709 5712 5715 5719 5722 5724 5726 5728 5730 5731 5734 5736 5738 5740 5743 5745 5746 5748 5749 5751 5752 5753 5755 5756 5756 5756 5755 5755 5755 5756 5758 5759 5760 5762 5763 5763 5762 5762 5762 5762 5762 5760 5760 5759 5758 5757 5757 5756 5755 5753 5753 5753 5751 5750 5748
5603 5607 5611 5614 5618 5621 5624 5628 5634 5640 5642 5643 5646 5651 5655 5657 5657 5657 5661 5665 5670 5673 5677 5681 5685 5688 5690 5693 5696 5700 5703 5706 5710 5713 5716 5719 5720 5722 5724 5725 5727 5730 5732 5735 5737 5739 5741 5742 5743 5745 5747 5747 5749 5751 5751 5750 5749 5749 5750 5751 5752 5753 5755 5757 5758 5758 5757 5757 5757 5756 5756 5755 5754 5754 5753 5753 5752 5751 5750 5749 5749 5748 5747 5745 5744
5600 5603 5606 5609 5613 5617 5619 5622 5626 5631 5635 5637 5640 5644 5648 5650 5650 5652 5656 5660 5663 5666 5670 5673 5677 5680 5683 5687 5691 5694 5698 5701 5704 5707 5710 5712 5714 5716 5718 5719 5721 5724 5726 5728 5730 5732 5734 5736 5738 5739 5741 5742 5743 5745 5745 5744 5743 5743 5745 5746 5747 5747 5750 5751 5751 5751 5752 5751 5751 5751 5750 5749 5748 5749 5749 5748 5748 5746 5744 5745 5745 5743 5742 5741 5740
5596 5599 5602 5605 5608 5611 5614 5617 5619 5622 5626 5630 5634 5637 5641 5643 5645 5648 5651 5653 5656 5659 5661 5665 5669 5673 5677 5681 5685 5688 5691 5695 5698 5701 5704 5706 5708 5710 5712 5713 5715 5717 5720 5722 5724 5726 5729 5730 5732 5733 5734 5736 5737 5738 5738 5738 5737 5737 5738 5740 5740 5742 5746 5746 5744 5745 5746 5744 5744 5744 5744 5743 5743 5744 5744 5743 5743 5741 5740 5740 5739 5737 5737 5736 5735
5592 5595 5598 5601 5604 5606 5609 5611 5614 5616 5619 5623 5627 5630 5632 5635 5638 5642 5646 5648 5650 5652 5655 5659 5663 5667 5671 5675 5678 5682 5686 5689 5692 5695 5698 5700 5702 5704 5706 5707 5709 5711 5713 5716 5718 5720 5722 5724 5725 5727 5728 5730 5732 5732 5731 5731 5731 5731 5731 5731 5732 5736 5741 5740 5737 5738 5739 5738 5738 5737 5737 5738 5738 5738 5739 5738 5737 5737 5735 5734 5733 5731 5731 5731 5729
5587 5590 5593 5596 5599 5601 5604 5606 5608 5611 5614 5617 5620 5623 5625 5628 5632 5636 5639 5642 5644 5647 5649 5653 5656 5660 5665 5668 5672 5676 5680 5683 5686 5689 5691 5693 5696 5698 5699 5701 5703 5705 5707 5710 5712 5713 5714 5716 5718 5720 5722 5724 5725 5726 5725 5724 5724 5725 5724 5723 5725 5731 5734 5731 5729 5731 5732 5732 5733 5732 5731 5733 5733 5732 5733 5733 5732 5732 5730 5728 5727 5725 5724 5724 5723
5582 5585 5588 5591 5593 5596 5598 5600 5603 5605 5608 5611 5614 5617 5620 5623 5626 5629 5632 5634 5637 5640 5643 5646 5649 5653 5657 5661 5665 5670 5673 5677 5680 5683 5685 5687 5689 5691 5693 5695 5698 5699 5701 5703 5705 5706 5707 5709 5711 5714 5716 5718 5718 5718 5718 5718 5718 5717 5716 5717 5721 5724 5725 5723 5722 5724 5725 5726 5727 5726 5726 5728 5728 5727 5727 5727 5726 5727 5725 5723 5722 5719 5718 5718 5718
5577 5580 5582 5585 5587 5590 5592 5595 5597 5600 5602 5604 5607 5610 5613 5616 5619 5623 5625 5627 5630 5633 5636 5639 5642 5646 5650 5654 5659 5664 5668 5671 5673 5676 5679 5682 5683 5685 5687 5689 5691 5692 5694 5696 5698 5699 5701 5702 5704 5707 5709 5711 5711 5711 5710 5711 5711 5711 5711 5712 5715 5717 5717 5716 5716 5717 5719 5721 5721 5721 5721 5722 5723 5722 5722 5721 5720 5721 5719 5717 5715 5714 5712 5712 5712
5573 5575 5577 5579 5581 5583 5586 5588 5591 5593 5596 5598 5600 5604 5607 5610 5613 5616 5619 5621 5624 5627 5630 5633 5636 5640 5644 5648 5653 5658 5662 5665 5667 5670 5673 5676 5677 5678 5680 5682 5684 5685 5686 5688 5690 5692 5693 5695 5696 5698 5702 5704 5705 5704 5703 5703 5705 5706 5707 5707 5709 5710 5710 5709 5710 5711 5713 5715 5716 5716 5717 5717 5717 5717 5716 5714 5714 5715 5713 5711 5709 5708 5707 5706 5705
5570 5571 5572 5573 5575 5576 5578 5580 5583 5585 5588 5590 5593 5596 5600 5602 5606 5609 5612 5615 5618 5621 5625 5628 5631 5634 5638 5643 5647 5651 5655 5658 5661 5663 5666 5668 5669 5670 5673 5675 5676 5677 5679 5681 5683 5685 5686 5687 5689 5691 5695 5697 5699 5698 5697 5697 5699 5701 5702 5702 5702 5702 5701 5703 5706 5707 5707 5708 5709 5711 5712 5711 5711 5710 5708 5708 5708 5708 5706 5705 5704 5703 5702 5701 5700
5567 5568 5569 5570 5570 5571 5571 5572 5574 5576 5578 5581 5584 5588 5591 5594 5598 5602 5605 5608 5611 5615 5619 5622 5625 5628 5632 5637 5641 5645 5648 5650 5653 5655 5658 5660 5662 5663 5665 5667 5668 5669 5672 5675 5677 5678 5679 5680 5682 5685 5688 5690 5691 5692 5692 5692 5693 5695 5695 5695 5695 5694 5694 5697 5700 5701 5701 5702 5703 5704 5706 5706 5704 5702 5700 5701 5702 5701 5699 5699 5697 5696 5695 5695 5694
5565 5566 5566 5566 5566 5565 5565 5565 5566 5566 5568 5570 5574 5578 5582 5585 5589 5593 5596 5600 5605 5608 5611 5615 5618 5622 5626 5630 5633 5636 5639 5641 5644 5647 5650 5652 5654 5656 5658 5660 5661 5662 5665 5668 5669 5670 5672 5674 5676 5678 5680 5682 5684 5685 5686 5687 5688 5688 5689 5689 5688 5688 5689 5691 5693 5694 5695 5696 5696 5697 5700 5700 5698 5695 5693 5695 5695 5694 5693 5692 5690 5688 5689 5688 5686
5563 5563 5562 5561 5561 5559 5559 5558 5557 5557 5558 5560 5563 5567 5571 5575 5580 5584 5587 5592 5596 5600 5605 5608 5611 5615 5619 5622 5624 5627 5630 5632 5635 5638 5641 5644 5647 5650 5652 5653 5654 5655 5658 5660 5662 5663 5665 5667 5669 5671 5673 5675 5676 5678 5679 5680 5681 5682 5682 5682 5682 5682 5683 5684 5686 5687 5688 5689 5690 5691 5692 5692 5690 5687 5687 5688 5688 5687 5686 5686 5684 5682 5682 5680 5677
5559 5559 5558 5556 5554 5552 5551 5549 5547 5547 5547 5549 5552 5555 5559 5564 5570 5573 5576 5581 5587 5593 5598 5601 5603 5606 5610 5613 5616 5619 5621 5623 5625 5629 5634 5637 5640 5642 5644 5646 5647 5649 5651 5653 5654 5656 5658 5660 5662 5664 5666 5667 5668 5670 5671 5673 5674 5675 5675 5676 5675 5676 5677 5677 5678 5679 5681 5683 5683 5684 5684 5684 5681 5680 5680 5681 5680 5679 5679 5678 5677 5676 5675 5673 5672
5556 5555 5554 5552 5548 5544 5540 5537 5535 5533 5532 5535 5538 5542 5547 5554 5559 5562 5567 5574 5580 5586 5590 5593 5596 5600 5602 5605 5609 5612 5613 5615 5619 5624 5627 5630 5632 5635 5637 5639 5641 5642 5644 5645 5647 5648 5650 5653 5655 5657 5658 5659 5661 5662 5663 5665 5666 5667 5668 5669 5669 5669 5669 5670 5671 5672 5673 5675 5675 5676 5676 5675 5672 5672 5672 5672 5672 5672 5671 5671 5671 5669 5667 5666 5666
5551 5550 5549 5546 5542 5537 5532 5528 5523 5519 5518 5519 5523 5529 5537 5545 5550 5555 5561 5568 5573 5577 5582 5586 5590 5594 5596 5599 5603 5606 5607 5610 5614 5618 5619 5621 5624 5627 5629 5631 5633 5635 5636 5637 5639 5641 5643 5645 5647 5649 5650 5651 5653 5654 5656 5657 5658 5659 5660 5661 5661 5662 5662 5663 5664 5665 5665 5666 5667 5668 5668 5666 5664 5664 5665 5665 5664 5664 5664 5664 5663 5662 5660 5659 5659
5547 5545 5543 5540 5536 5532 5528 5523 5518 5512 5509 5509 5512 5520 5529 5537 5543 5549 5556 5561 5566 5570 5574 5578 5583 5587 5590 5593 5597 5600 5602 5605 5608 5610 5612 5615 5617 5619 5621 5623 5625 5627 5628 5629 5631 5634 5636 5637 5639 5640 5641 5643 5645 5647 5648 5649 5650 5651 5652 5653 5654 5655 5655 5655 5656 5657 5657 5658 5658 5659 5659 5658 5657 5657 5657 5657 5657 5656 5656 5657 5656 5655 5654 5653 5651
5543 5540 5538 5535 5531 5527 5524 5521 5516 5511 5509 5509 5510 5516 5525 5532 5538 5544 5551 5556 5561 5565 5569 5573 5577 5580 5583 5587 5590 5593 5596 5599 5602 5604 5606 5609 5610 5612 5614 5615 5617 5618 5619 5620 5623 5626 5627 5628 5630 5631 5633 5634 5636 5638 5640 5641 5642 5643 5644 5645 5647 5648 5648 5648 5648 5648 5648 5649 5650 5651 5650 5650 5650 5650 5649 5649 5648 5647 5647 5648 5648 5647 5647 5645 5644
5543 5539 5535 5532 5529 5525 5522 5520 5516 5513 5512 5512 5514 5518 5524 5530 5535 5541 5547 5552 5557 5561 5565 5568 5571 5574 5577 5580 5583 5586 5590 5593 5595 5598 5600 5602 5604 5605 5607 5608 5609 5610 5611 5612 5615 5618 5619 5620 5621 5623 5624 5625 5627 5629 5632 5633 5634 5635 5636 5637 5638 5639 5640 5640 5639 5639 5639 5641 5641 5642 5642 5642 5641 5641 5641 5640 5640 5639 5638 5638 5639 5639 5638 5637 5637
5542 5538 5534 5531 5528 5525 5522 5520 5518 5516 5515 5516 5518 5522 5527 5531 5534 5539 5544 5548 5553 5557 5560 5564 5567 5570 5572 5574 5577 5580 5583 5586 5589 5591 5593 5595 5596 5597 5599 5600 5601 5602 5603 5605 5607 5609 5611 5612 5614 5615 5616 5617 5618 5621 5623 5625 5625 5626 5627 5628 5628 5628 5629 5630 5630 5630 5631 5631 5632 5633 5634 5634 5633 5633 5632 5632 5631 5630 5630 5630 5630 5630 5629 5628 5629
5540 5538 5535 5532 5529 5526 5523 5521 5520 5519 5518 5519 5521 5524 5527 5530 5533 5536 5540 5544 5548 5552 5555 5559 5562 5565 5567 5569 5572 5574 5577 5579 5582 5584 5586 5587 5589 5590 5591 5592 5594 5595 5596 5597 5599 5601 5603 5604 5606 5607 5608 5609 5611 5612 5614 5615 5616 5617 5618 5618 5618 5618 5619 5620 5621 5621 5621 5622 5623 5624 5625 5625 5624 5624 5623 5623 5622 5622 5621 5621 5622 5622 5621 5621 5620
5539 5538 5536 5533 5530 5527 5525 5523 5521 5521 5521 5521 5522 5524 5526 5528 5531 5534 5537 5540 5543 5547 5550 5553 5556 5559 5562 5565 5567 5569 5571 5573 5575 5577 5579 5580 5582 5583 5584 5585 5587 5588 5589 5590 5592 5594 5595 5596 5598 5599 5600 5601 5602 5603 5605 5606 5607 5608 5609 5610 5610 5610 5610 5611 5612 5613 5613 5614 5615 5616 5616 5616 5615 5615 5614 5614 5614 5613 5613 5613 5613 5613 5613 5613 5612
5537 5537 5536 5534 5532 5529 5526 5524 5523 5522 5522 5523 5523 5524 5526 5527 5530 5532 5534 5536 5539 5542 5544 5547 5550 5553 5555 5558 5560 5562 5565 5566 5568 5570 5572 5573 5575 5576 5577 5578 5579 5581 5582 5583 5584 5586 5587 5588 5589 5590 5592 5593 5594 5595 5596 5597 5599 5599 5600 5601 5602 5602 5602 5603 5603 5604 5605 5606 5607 5608 5608 5607 5607 5606 5606 5606 5606 5605 5604 5604 5604 5604 5605 5604 5603
5535 5535 5535 5534 5532 5530 5528 5526 5525 5524 5523 5523 5524 5525 5526 5526 5528 5529 5531 5533 5535 5537 5540 5542 5545 5547 5549 5551 5553 5555 5557 5559 5561 5563 5565 5566 5567 5568 5569 5570 5571 5573 5574 5575 5576 5577 5578 5579 5581 5582 5583 5584 5585 5586 5588 5589 5590 5591 5591 5592 5593 5593 5594 5594 5595 5595 5596 5597 5598 5598 5598 5598 5598 5597 5597 5597 5597 5596 5596 5595 5595 5595 5596 5596 5595
5533 5532 5532 5532 5532 5530 5529 5528 5527 5525 5524 5523 5523 5524 5524 5525 5526 5527 5529 5530 5532 5534 5536 5539 5541 5543 5544 5546 5547 5549 5551 5552 5554 5555 5557 5558 5559 5560 5561 5561 5562 5563 5564 5565 5567 5568 5569 5570 5571 5572 5573 5574 5576 5577 5578 5579 5580 5581 5582 5583 5583 5584 5585 5585 5586 5587 5587 5587 5588 5588 5588 5588 5588 5588 5588 5588 5587 5587 5586 5587 5587 5587 5588 5588 5587
5530 5530 5530 5530 5530 5529 5528 5527 5527 5526 5525 5525 5524 5524 5523 5524 5525 5526 5527 5527 5529 5531 5533 5534 5536 5538 5539 5541 5542 5544 5545 5547 5548 5549 5549 5550 5551 5551 5552 5553 5553 5554 5555 5555 5557 5558 5559 5560 5562 5563 5564 5565 5566 5567 5568 5569 5571 5572 5573 5573 5574 5574 5575 5576 5576 5577 5578 5578 5578 5578 5578 5578 5578 5578 5578 5578 5578 5578 5578 5578 5578 5579 5579 5579 5579
5528 5528 5527 5527 5527 5527 5526 5526 5525 5525 5525 5525 5525 5525 5524 5524 5524 5525 5526 5527 5528 5529 5530 5531 5532 5533 5535 5535 5537 5538 5539 5540 5541 5542 5543 5543 5544 5544 5545 5545 5545 5545 5546 5546 5547 5548 5549 5551 5552 5553 5554 5555 5556 5557 5558 5559 5561 5562 5563 5563 5564 5565 5565 5566 5566 5567 5567 5568 5568 5568 5568 5568 5569 5569 5569 5569 5569 5569 5569 5569 5569 5570 5570 5570 5570
5526 5525 5525 5525 5525 5525 5524 5524 5524 5523 5523 5523 5523 5523 5523 5524 5524 5524 5525 5526 5527 5527 5528 5529 5529 5530 5530 5530 5531 5532 5533 5534 5535 5536 5536 5537 5537 5537 5538 5538 5538 5538 5538 5539 5539 5540 5541 5541 5542 5543 5544 5545 5546 5547 5548 5549 5550 5551 5552 5553 5554 5555 5555 5556 5556 5556 5557 5558 5558 5558 5558 5559 5559 5559 5559 5560 5560 5560 5560 5560 5560 5560 5560 5560 5560
5524 5523 5523 5523 5523 5523 5523 5522 5522 5521 5521 5521 5521 5521 5521 5522 5522 5522 5523 5524 5524 5525 5525 5525 5525 5525 5525 5525 5526 5526 5527 5528 5529 5529 5530 5530 5530 5531 5531 5531 5531 5531 5532 5532 5532 5533 5533 5534 5535 5535 5536 5537 5537 5538 5539 5540 5541 5542 5543 5543 5544 5544 5545 5545 5546 5546 5546 5547 5548 5548 5548 5549 5549 5549 5550 5550 5550 5550 5551 5551 5551 5551 5551 5551 5551
5522 5522 5521 5521 5520 5520 5520 5520 5520 5520 5519 5519 5519 5519 5519 5519 5519 5520 5520 5521 5521 5521 5521 5521 5521 5520 5520 5520 5520 5521 5522 5523 5523 5523 5523 5524 5524 5524 5524 5524 5525 5525 5526 5526 5526 5526 5527 5527 5528 5529 5529 5530 5530 5531 5531 5531 5532 5533 5534 5534 5535 5535 5535 5536 5536 5536 5537 5538 5538 5539 5539 5539 5540 5540 5540 5540 5541 5541 5541 5542 5542 5542 5542 5543 5543
5521 5520 5519 5519 5518 5518 5518 5518 5517 5517 5517 5517 5517 5516 5516 5516 5516 5517 5517 5517 5518 5518 5517 5517 5517 5517 5516 5516 5516 5517 5517 5518 5518 5518 5517 5517 5517 5517 5517 5518 5518 5519 5519 5519 5519 5519 5520 5520 5521 5521 5522 5522 5523 5523 5523 5524 5524 5524 5525 5525 5526 5526 5527 5527 5527 5528 5528 5529 5529 5530 5530 5530 5530 5531 5531 5531 5531 5531 5532 5532 5533 5534 5534 5535 5535
5520 5519 5518 5517 5517 5516 5516 5515 5515 5515 5515 5514 5514 5514 5513 5513 5513 5513 5513 5513 5513 5514 5513 5513 5513 5513 5513 5513 5513 5513 5513 5513 5513 5513 5513 5512 5512 5511 5511 5511 5511 5512 5512 5512 5512 5512 5512 5512 5513 5513 5514 5514 5515 5515 5515 5515 5515 5516 5516 5516 5517 5518 5519 5519 5520 5520 5520 5520 5521 5522 5522 5522 5522 5523 5523 5523 5523 5523 5523 5524 5524 5525 5525 5526 5526
5519 5518 5517 5516 5515 5514 5514 5513 5513 5512 5512 5511 5511 5511 5510 5510 5510 5510 5510 5509 5509 5509 5509 5509 5509 5509 5509 5509 5509 5509 5508 5508 5508 5508 5508 5508 5508 5507 5507 5506 5506 5506 5506 5506 5506 5506 5506 5505 5505 5505 5505 5506 5506 5506 5507 5507 5506 5506 5507 5508 5509 5510 5511 5511 5512 5513 5513 5513 5513 5514 5514 5515 5515 5515 5515 5515 5515 5516 5516 5516 5517 5517 5517 5517 5518
5518 5516 5515 5514 5514 5513 5512 5512 5511 5510 5510 5509 5508 5508 5507 5507 5506 5506 5506 5506 5505 5505 5505 5505 5505 5504 5504 5504 5504 5504 5504 5504 5504 5503 5503 5503 5503 5503 5502 5502 5501 5501 5500 5500 5500 5500 5500 5500 5500 5499 5499 5499 5499 5499 5499 5499 5499 5499 5499 5500 5502 5502 5503 5503 5504 5505 5506 5506 5506 5506 5506 5507 5507 5507 5507 5507 5508 5508 5509 5509 5509 5510 5510 5510 5510
5517 5515 5514 5513 5512 5511 5511 5510 5509 5509 5508 5507 5507 5506 5505 5504 5504 5503 5503 5502 5502 5501 5501 5501 5500 5500 5499 5499 5499 5499 5499 5498 5498 5498 5498 5497 5497 5497 5496 5496 5495 5495 5494 5494 5494 5493 5494 5494 5494 5494 5494 5493 5493 5493 5493 5493 5493 5494 5494 5494 5495 5495 5495 5495 5496 5497 5498 5499 5499 5499 5499 5499 5499 5500 5500 5500 5500 5501 5501 5501 5502 5502 5502 5502 5502
5515 5514 5513 5512 5511 5510 5509 5508 5507 5507 5506 5505 5505 5504 5503 5502 5501 5501 5500 5499 5498 5497 5497 5496 5496 5495 5495 5494 5494 5493 5493 5493 5492 5492 5492 5491 5491 5490 5490 5490 5489 5489 5488 5488 5488 5487 5487 5487 5487 5487 5487 5487 5487 5487 5487 5487 5487 5487 5488 5489 5489 5489 5488 5488 5489 5489 5490 5491 5491 5491 5491 5491 5492 5492 5492 5493 5493 5493 5493 5493 5494 5494 5495 5495 5495
5514 5513 5512 5511 5510 5508 5507 5507 5506 5505 5504 5503 5502 5502 5501 5500 5499 5498 5497 5496 5495 5494 5493 5492 5491 5491 5490 5489 5488 5488 5487 5486 5486 5486 5485 5485 5484 5484 5483 5483 5483 5482 5482 5481 5481 5481 5481 5480 5480 5480 5480 5480 5480 5480 5480 5480 5480 5481 5481 5482 5482 5482 5482 5482 5482 5483 5484 5484 5484 5484 5484 5484 5484 5484 5485 5485 5486 5486 5486 5486 5486 5487 5487 5487 5487